Location: Unspecified
(0.0000°N, 0.0000°E)
Time: 01:24:53
(UTC+00:00)

A-11 Canister half - Pass Details

Date: 19 November 2019
Orbit: 1526 x 1683 km, 47.3° (Epoch: 10 December)

Event Time Altitude Azimuth Distance (km) Brightness Sun altitude
Rises 21:03:44 0° 311° (NW) 4,681 11.7 -45.8°
Reaches altitude 10° 21:06:50 10° 307° (NW) 3,691 11.1 -46.5°
Enters shadow 21:10:17 26° 299° (WNW) 2,670 10.3 -47.3°
Maximum altitude 21:15:53 58° 231° (SW) 1,744 - -48.5°
Drops below altitude 10° 21:25:00 10° 153° (SSE) 3,716 - -50.4°
Sets 21:28:10 0° 149° (SSE) 4,714 - -51.1°
